BUC2139 LBWN-EDLW

Flight info

Callsign BUC2139
Flight time N/A
Altitude 34000
Route BALIK4N BALIK T777 KOMAN DCT DEGET DCT VEBOS DCT BEGLA DCT LAMSI DCT AKOSI DCT PILAM T843 DEMAB T842 ADEMI ADEMI2A
Aircraft MD82/M-SDFGIRWY/C

Departure

Time 2026-05-06 16:19
Airport Varna Airport (LBWN)

Arrival

Time N/A
Airport Dortmund Airport (EDLW)
Time Latitude Longitude Altitude Speed Heading
2026-05-06 16:14 43.23547 27.83137 223 ft 0 kts 90°
2026-05-06 16:15 43.23547 27.83141 223 ft 2 kts 90°
2026-05-06 16:15 43.23544 27.83201 223 ft 10 kts 96°
2026-05-06 16:15 43.23528 27.83305 223 ft 11 kts 122°
2026-05-06 16:15 43.23492 27.83332 223 ft 4 kts 168°
2026-05-06 16:16 43.23455 27.83331 223 ft 8 kts 185°
2026-05-06 16:16 43.23397 27.83331 225 ft 8 kts 163°
2026-05-06 16:16 43.23367 27.83389 223 ft 9 kts 104°
2026-05-06 16:16 43.23362 27.83500 223 ft 15 kts 95°
2026-05-06 16:17 43.23346 27.83666 223 ft 20 kts 97°
2026-05-06 16:17 43.23329 27.83849 223 ft 19 kts 97°
2026-05-06 16:17 43.23301 27.84019 223 ft 18 kts 122°
2026-05-06 16:17 43.23203 27.84096 224 ft 16 kts 178°
2026-05-06 16:18 43.23103 27.84038 224 ft 16 kts 220°
2026-05-06 16:18 43.23075 27.83873 223 ft 39 kts 276°
2026-05-06 16:18 43.23148 27.83063 223 ft 130 kts 276°
2026-05-06 16:18 43.23287 27.81475 310 ft 198 kts 276°
2026-05-06 16:19 43.23448 27.79509 1244 ft 212 kts 276°
2026-05-06 16:19 43.23616 27.77325 2042 ft 250 kts 275°
2026-05-06 16:19 43.23861 27.74933 3439 ft 249 kts 275°
2026-05-06 16:19 43.23733 27.72644 5108 ft 242 kts 256°
2026-05-06 16:20 43.23046 27.70568 6642 ft 239 kts 237°
2026-05-06 16:20 43.21913 27.68928 7961 ft 237 kts 220°
2026-05-06 16:20 43.20733 27.67413 9179 ft 229 kts 239°
2026-05-06 16:20 43.20037 27.65527 10270 ft 217 kts 263°
2026-05-06 16:21 43.19903 27.63530 11218 ft 207 kts 284°
2026-05-06 16:21 43.20296 27.61612 11851 ft 216 kts 303°
2026-05-06 16:21 43.21226 27.59876 12213 ft 240 kts 321°
2026-05-06 16:21 43.22682 27.58502 12468 ft 270 kts 338°
2026-05-06 16:22 43.24573 27.57740 12764 ft 299 kts 352°
2026-05-06 16:22 43.26738 27.57286 13115 ft 328 kts 351°
2026-05-06 16:22 43.29002 27.56546 14049 ft 337 kts 345°
2026-05-06 16:22 43.31234 27.55500 15105 ft 340 kts 340°
2026-05-06 16:23 43.33413 27.54264 16091 ft 346 kts 338°
2026-05-06 16:23 43.35612 27.52870 17108 ft 350 kts 336°
2026-05-06 16:23 43.37815 27.51375 18093 ft 355 kts 335°
2026-05-06 16:23 43.40030 27.49814 18980 ft 361 kts 335°
2026-05-06 16:24 43.42264 27.48210 19864 ft 364 kts 334°
2026-05-06 16:24 43.44527 27.46576 20715 ft 369 kts 334°
2026-05-06 16:24 43.46813 27.44927 21572 ft 374 kts 334°
2026-05-06 16:24 43.49135 27.43257 22443 ft 378 kts 334°
2026-05-06 16:25 43.51487 27.41572 23284 ft 383 kts 334°
2026-05-06 16:25 43.53864 27.39874 24022 ft 387 kts 334°
2026-05-06 16:25 43.56271 27.38159 24700 ft 392 kts 334°
2026-05-06 16:25 43.58705 27.36424 25376 ft 395 kts 334°
2026-05-06 16:26 43.61165 27.34669 26024 ft 400 kts 334°
2026-05-06 16:26 43.63647 27.32897 26679 ft 404 kts 334°
2026-05-06 16:26 43.66083 27.31022 27256 ft 411 kts 325°
2026-05-06 16:26 43.68119 27.28220 27871 ft 419 kts 306°
2026-05-06 16:27 43.69477 27.24625 28498 ft 427 kts 295°
2026-05-06 16:27 43.70553 27.20776 29069 ft 432 kts 293°
2026-05-06 16:27 43.71591 27.16853 29688 ft 436 kts 292°
2026-05-06 16:27 43.72631 27.12899 30248 ft 439 kts 292°
2026-05-06 16:28 43.73694 27.08916 30779 ft 442 kts 293°
2026-05-06 16:28 43.74788 27.04933 31271 ft 445 kts 294°
2026-05-06 16:28 43.75915 27.00939 31764 ft 447 kts 294°
2026-05-06 16:28 43.77064 26.96938 32236 ft 449 kts 294°
2026-05-06 16:29 43.78229 26.92912 32665 ft 451 kts 294°
2026-05-06 16:29 43.79398 26.88876 33051 ft 454 kts 294°
2026-05-06 16:29 43.80574 26.84802 33398 ft 456 kts 294°
2026-05-06 16:29 43.81747 26.80719 33705 ft 458 kts 294°
2026-05-06 16:30 43.82926 26.76605 34008 ft 459 kts 294°
2026-05-06 16:30 43.83702 26.73883 34146 ft 460 kts 294°
2026-05-06 16:30 43.85262 26.68341 34412 ft 462 kts 294°
2026-05-06 16:30 43.86424 26.64178 34562 ft 462 kts 294°
2026-05-06 16:31 43.87583 26.60022 34408 ft 464 kts 294°
2026-05-06 16:31 43.88746 26.55857 34246 ft 460 kts 294°
2026-05-06 16:31 43.91010 26.47764 34066 ft 448 kts 294°
2026-05-06 16:32 43.93060 26.40464 34010 ft 445 kts 294°
2026-05-06 16:32 43.95310 26.32456 33989 ft 446 kts 294°
2026-05-06 16:33 43.97557 26.24434 33982 ft 446 kts 294°
2026-05-06 16:33 43.98872 26.20559 33983 ft 442 kts 305°
2026-05-06 16:34 44.02521 26.13714 33977 ft 441 kts 310°
2026-05-06 16:34 44.06329 26.07022 33973 ft 441 kts 310°
2026-05-06 16:35 44.10098 26.00270 33972 ft 442 kts 309°
2026-05-06 16:35 44.13819 25.93456 33971 ft 442 kts 309°
2026-05-06 16:36 44.17504 25.86656 33969 ft 442 kts 309°
2026-05-06 16:36 44.21218 25.79811 33970 ft 442 kts 309°
2026-05-06 16:37 44.24928 25.72978 33969 ft 442 kts 309°
2026-05-06 16:37 44.28616 25.66123 33969 ft 442 kts 309°
2026-05-06 16:38 44.32312 25.59242 33972 ft 442 kts 309°
2026-05-06 16:38 44.36007 25.52371 33968 ft 442 kts 309°
2026-05-06 16:39 44.39685 25.45534 33967 ft 442 kts 309°
2026-05-06 16:39 44.43380 25.38653 33966 ft 442 kts 309°
2026-05-06 16:40 44.47079 25.31756 33965 ft 442 kts 309°
2026-05-06 16:40 44.50766 25.24857 33972 ft 443 kts 308°
2026-05-06 16:41 44.54434 25.17927 33965 ft 442 kts 308°
2026-05-06 16:41 44.58081 25.11036 33968 ft 443 kts 308°
2026-05-06 16:42 44.61756 25.04104 33968 ft 442 kts 308°
2026-05-06 16:42 44.65434 24.97162 33966 ft 443 kts 308°
2026-05-06 16:43 44.69114 24.90207 33965 ft 443 kts 308°
2026-05-06 16:43 44.72794 24.83239 33966 ft 444 kts 308°
2026-05-06 16:44 44.76462 24.76250 33966 ft 444 kts 308°
2026-05-06 16:44 44.79501 24.70416 33970 ft 444 kts 308°
2026-05-06 16:45 44.83781 24.62206 33966 ft 444 kts 308°
2026-05-06 16:45 44.86832 24.56364 33965 ft 444 kts 308°
2026-05-06 16:46 44.90469 24.49391 33966 ft 444 kts 308°
2026-05-06 16:46 44.94130 24.42357 33967 ft 444 kts 308°
2026-05-06 16:47 44.97792 24.35315 33964 ft 444 kts 308°
2026-05-06 16:47 45.01432 24.28263 33960 ft 444 kts 307°
2026-05-06 16:48 45.05060 24.21188 33966 ft 444 kts 307°
2026-05-06 16:48 45.08688 24.14119 33971 ft 444 kts 307°
2026-05-06 16:49 45.12322 24.07048 33969 ft 444 kts 307°
2026-05-06 16:49 45.15955 23.99971 33975 ft 444 kts 307°
2026-05-06 16:50 45.19590 23.92877 33979 ft 444 kts 307°
2026-05-06 16:50 45.23194 23.85827 33984 ft 445 kts 307°
2026-05-06 16:51 45.26803 23.78701 33982 ft 444 kts 307°
2026-05-06 16:51 45.30405 23.71558 33986 ft 445 kts 307°
2026-05-06 16:52 45.34017 23.64414 33988 ft 445 kts 307°
2026-05-06 16:52 45.37630 23.57267 33990 ft 445 kts 307°
2026-05-06 16:53 45.41247 23.50107 33986 ft 445 kts 307°
2026-05-06 16:53 45.44857 23.42940 33987 ft 445 kts 307°
2026-05-06 16:54 45.48465 23.35761 33985 ft 446 kts 307°
2026-05-06 16:54 45.52055 23.28537 33977 ft 447 kts 307°
2026-05-06 16:55 45.55621 23.21347 33967 ft 446 kts 307°
2026-05-06 16:55 45.59243 23.14064 33962 ft 447 kts 307°
2026-05-06 16:56 45.62846 23.06819 33958 ft 448 kts 307°
2026-05-06 16:56 45.66449 22.99561 33956 ft 448 kts 306°
2026-05-06 16:57 45.70028 22.92337 33953 ft 448 kts 306°
2026-05-06 16:57 45.73620 22.85044 33951 ft 449 kts 306°
2026-05-06 16:58 45.77198 22.77712 33946 ft 448 kts 306°
2026-05-06 16:58 45.80777 22.70384 33946 ft 449 kts 306°
2026-05-06 16:59 45.84367 22.63042 33950 ft 450 kts 306°
2026-05-06 16:59 45.87963 22.55683 33947 ft 450 kts 306°
2026-05-06 17:00 45.91531 22.48369 33943 ft 450 kts 306°
2026-05-06 17:00 45.95128 22.40985 33943 ft 452 kts 306°
2026-05-06 17:01 45.98704 22.33562 33939 ft 452 kts 305°
2026-05-06 17:01 46.02276 22.26113 33936 ft 452 kts 305°
2026-05-06 17:02 46.05854 22.18665 33937 ft 452 kts 305°
2026-05-06 17:02 46.09441 22.11210 33937 ft 452 kts 305°
2026-05-06 17:03 46.13026 22.03737 33933 ft 453 kts 305°
2026-05-06 17:03 46.16612 21.96251 33928 ft 454 kts 305°
2026-05-06 17:04 46.20200 21.88737 33928 ft 455 kts 304°
2026-05-06 17:04 46.23764 21.81182 33928 ft 455 kts 304°
2026-05-06 17:05 46.27306 21.73670 33923 ft 455 kts 304°
2026-05-06 17:05 46.30882 21.66105 33918 ft 455 kts 304°
2026-05-06 17:06 46.34459 21.58530 33913 ft 456 kts 304°
2026-05-06 17:06 46.38033 21.50948 33912 ft 456 kts 304°
2026-05-06 17:07 46.41609 21.43347 33912 ft 456 kts 304°
2026-05-06 17:07 46.45194 21.35756 33905 ft 456 kts 304°
2026-05-06 17:08 46.48810 21.28210 33904 ft 455 kts 303°
2026-05-06 17:08 46.51667 21.20129 33907 ft 453 kts 292°
2026-05-06 17:09 46.54148 21.11724 33902 ft 452 kts 293°
2026-05-06 17:09 46.56747 21.03406 33899 ft 451 kts 294°
2026-05-06 17:10 46.59427 20.95142 33898 ft 451 kts 295°
2026-05-06 17:10 46.62116 20.86891 33900 ft 451 kts 294°
2026-05-06 17:11 46.64773 20.78681 33897 ft 451 kts 294°
2026-05-06 17:11 46.67432 20.70416 33890 ft 450 kts 294°
2026-05-06 17:12 46.70054 20.62133 33889 ft 450 kts 294°
2026-05-06 17:12 46.72666 20.53824 33885 ft 450 kts 294°
2026-05-06 17:13 46.75277 20.45542 33885 ft 449 kts 294°
2026-05-06 17:13 46.77891 20.37261 33887 ft 449 kts 294°
2026-05-06 17:14 46.80501 20.28988 33882 ft 449 kts 294°
2026-05-06 17:14 46.83106 20.20714 33885 ft 448 kts 293°
2026-05-06 17:15 46.85702 20.12432 33894 ft 448 kts 293°